N6OIM Weather Reports


time (UTC)temp
C
wind
direction
speed
KPH
gust
KPH
rain 1hr
cm
rain 24hr
cm
rain mn
cm
humidity
%
barometer
mb
20260506124817 14 125 0.0 0.0 0.00 0.00 0.00 80 1018.1
20260506124325 14 125 0.0 0.0 0.00 0.00 0.00 80 1018.1
20260506123834 14 125 0.0 0.0 0.00 0.00 0.00 80 1018.0
20260506123325 14 125 0.0 0.0 0.00 0.00 0.00 80 1018.0
20260506122832 14 123 0.0 0.0 0.00 0.00 0.00 80 1018.1
20260506122320 14 123 0.0 0.0 0.00 0.00 0.00 80 1018.0
20260506121829 14 124 0.0 0.0 0.00 0.00 0.00 80 1017.9
20260506121321 14 124 0.0 0.0 0.00 0.00 0.00 80 1017.8
20260506120834 14 123 0.0 0.0 0.00 0.00 0.00 80 1017.8
20260506120322 14 124 0.0 0.0 0.00 0.00 0.00 80 1017.7
20260506115831 14 124 0.0 0.0 0.00 0.00 0.00 80 1017.7
20260506115317 14 125 0.0 0.0 0.00 0.00 0.00 80 1017.8
20260506114829 14 125 0.0 0.0 0.00 0.00 0.00 80 1017.8
20260506114321 14 125 0.0 0.0 0.00 0.00 0.00 80 1017.7
20260506113830 14 125 0.0 0.0 0.00 0.00 0.00 80 1017.7
20260506113319 14 125 0.0 0.0 0.00 0.00 0.00 80 1017.8
20260506112831 14 125 0.0 0.0 0.00 0.00 0.00 80 1017.7
20260506112319 14 125 0.0 0.0 0.00 0.00 0.00 80 1017.7
20260506111828 14 125 0.0 0.0 0.00 0.00 0.00 80 1017.6
20260506111317 14 125 0.0 0.0 0.00 0.00 0.00 80 1017.6
20260506110827 14 125 0.0 0.0 0.00 0.00 0.00 80 1017.6
20260506110318 15 123 0.0 0.0 0.00 0.00 0.00 80 1017.5
20260506105827 15 125 0.0 0.0 0.00 0.00 0.00 80 1017.6
20260506105316 15 125 0.0 0.0 0.00 0.00 0.00 80 1017.5
20260506104825 15 125 0.0 0.0 0.00 0.00 0.00 80 1017.4
20260506104321 15 125 0.0 0.0 0.00 0.00 0.00 80 1017.4
20260506103830 15 125 0.0 0.0 0.00 0.00 0.00 80 1017.4
20260506103322 15 244 0.0 0.0 0.00 0.00 0.00 80 1017.4
20260506102831 15 246 0.0 0.0 0.00 0.00 0.00 80 1017.2
20260506102321 15 246 0.0 0.0 0.00 0.00 0.00 79 1017.2
20260506101829 15 246 0.0 0.0 0.00 0.00 0.00 79 1017.1
20260506101317 15 246 0.0 0.0 0.00 0.00 0.00 79 1017.1
20260506100826 15 246 0.0 0.0 0.00 0.00 0.00 79 1017.2
20260506100318 15 246 0.0 0.0 0.00 0.00 0.00 79 1017.1
20260506095827 15 246 0.0 0.0 0.00 0.00 0.00 79 1017.2
20260506095318 15 246 0.0 0.0 0.00 0.00 0.00 79 1017.1
20260506094827 15 246 0.0 0.0 0.00 0.00 0.00 79 1017.2
20260506094334 15 246 0.0 0.0 0.00 0.00 0.00 78 1017.1
20260506093823 15 246 0.0 0.0 0.00 0.00 0.00 78 1017.1
20260506093334 15 246 0.0 0.0 0.00 0.00 0.00 78 1017.1
20260506092822 15 246 0.0 0.0 0.00 0.00 0.00 78 1017.2
20260506092331 15 246 0.0 0.0 0.00 0.00 0.00 77 1017.1
20260506091823 15 246 0.0 0.0 0.00 0.00 0.00 77 1017.1
20260506091335 15 246 0.0 0.0 0.00 0.00 0.00 77 1017.1
20260506090823 15 246 0.0 0.0 0.00 0.00 0.00 77 1017.1
20260506090335 15 246 0.0 0.0 0.00 0.00 0.00 77 1017.1
20260506085824 15 246 0.0 0.0 0.00 0.00 0.00 78 1017.1
20260506085331 15 253 0.0 0.0 0.00 0.00 0.00 78 1017.1
20260506084819 15 253 0.0 0.0 0.00 0.00 0.00 78 1017.1
20260506084330 15 253 0.0 0.0 0.00 0.00 0.00 78 1017.0
20260506083818 15 253 0.0 0.0 0.00 0.00 0.00 78 1017.1
20260506083330 15 253 0.0 0.0 0.00 0.00 0.00 78 1017.1
20260506082818 15 253 0.0 0.0 0.00 0.00 0.00 78 1017.1
20260506082326 15 253 0.0 0.0 0.00 0.00 0.00 78 1017.1
20260506081818 15 253 0.0 0.0 0.00 0.00 0.00 78 1017.1
20260506081326 15 253 0.0 0.0 0.00 0.00 0.00 77 1017.1
20260506080818 15 253 0.0 0.0 0.00 0.00 0.00 77 1017.1
20260506080326 15 253 0.0 0.0 0.00 0.18 0.00 77 1017.1
20260506073320 15 253 0.0 0.0 0.00 0.18 0.00 77 1016.9
20260506072832 15 253 0.0 0.0 0.00 0.18 0.00 77 1016.8
20260506072321 15 253 0.0 0.0 0.00 0.18 0.00 77 1016.8
20260506071830 15 253 0.0 0.0 0.00 0.18 0.00 77 1016.7
20260506071321 15 253 0.0 0.0 0.00 0.18 0.00 77 1016.6
20260506070829 15 253 0.0 0.0 0.00 0.18 0.00 77 1016.6
20260506070321 15 253 0.0 0.0 0.00 0.28 0.00 77 1016.6
20260506062319 16 253 0.0 0.0 0.00 0.28 0.00 76 1016.2
20260506061829 16 253 0.0 0.0 0.00 0.28 0.00 76 1016.1
20260506061317 16 253 0.0 0.0 0.00 0.28 0.00 76 1016.1
20260506060825 16 253 0.0 0.0 0.00 0.28 0.00 76 1016.0
20260506060317 16 253 0.0 0.0 0.00 0.61 0.00 76 1016.0
20260506051324 16 268 0.0 0.0 0.00 0.61 0.00 74 1015.5
20260506050833 16 152 0.0 0.0 0.00 0.61 0.00 75 1015.4
20260506050324 17 150 0.0 0.0 0.00 0.81 0.00 75 1015.3
20260506044834 17 150 0.0 0.0 0.00 0.81 0.00 75 1015.3
20260506044322 17 150 0.0 0.0 0.00 0.81 0.00 75 1015.4
20260506043831 17 149 0.0 0.0 0.00 0.81 0.00 75 1015.3
20260506043324 17 149 0.0 0.0 0.00 0.81 0.00 75 1015.2
20260506042816 17 149 0.0 0.0 0.00 0.81 0.00 74 1015.1
20260506042330 17 149 0.0 0.0 0.00 0.81 0.00 74 1014.9
20260506041818 17 150 0.0 0.0 0.00 0.81 0.00 74 1014.8
20260506041325 17 150 0.0 0.0 0.00 0.81 0.00 74 1014.7
20260506040819 17 149 0.0 0.0 0.00 0.81 0.00 74 1014.7
20260506040329 17 149 0.0 0.0 0.00 1.32 0.00 73 1014.7
20260506035818 17 149 0.0 0.0 0.00 1.32 0.00 73 1014.6
20260506035326 17 149 0.0 0.0 0.00 1.32 0.00 73 1014.7
20260506034835 17 149 0.0 0.0 0.00 1.32 0.00 73 1014.7
20260506034324 17 149 0.0 0.0 0.00 1.32 0.00 73 1014.7
20260506033833 17 149 0.0 0.0 0.00 1.32 0.00 73 1014.6
20260506033321 17 149 0.0 0.0 0.00 1.32 0.00 73 1014.6
20260506032813 17 149 0.0 0.0 0.00 1.32 0.00 72 1014.6
20260506032324 17 149 0.0 0.0 0.00 1.32 0.00 72 1014.4
20260506031833 17 149 0.0 0.0 0.00 1.32 0.00 72 1014.3
20260506031322 17 150 0.0 0.0 0.00 1.32 0.00 71 1014.2
20260506030814 17 150 0.0 0.0 0.00 1.32 0.00 71 1014.2
20260506030326 17 149 0.0 0.0 0.00 1.50 0.00 71 1014.1
20260506025835 17 150 0.0 0.0 0.00 1.50 0.00 71 1013.9
20260506025322 17 150 0.0 0.0 0.00 1.50 0.00 70 1013.9
20260506024830 17 149 0.0 0.0 0.00 1.50 0.00 70 1013.9
20260506024326 17 149 0.0 0.0 0.00 1.50 0.00 70 1013.8
20260506023835 17 150 0.0 0.0 0.00 1.50 0.00 69 1013.9
20260506023323 18 150 0.0 0.0 0.00 1.50 0.00 69 1013.6
20260506022816 18 151 0.0 0.0 0.00 1.50 0.00 69 1013.6
20260506022327 18 151 0.0 0.0 0.00 1.50 0.00 69 1013.5
20260506021836 18 150 0.0 0.0 0.00 1.50 0.00 68 1013.5
20260506021324 18 148 0.0 0.0 0.00 1.50 0.00 68 1013.5
20260506020814 18 154 0.0 0.0 0.00 1.50 0.00 68 1013.4
20260506020326 18 153 0.0 0.0 0.00 1.75 0.00 68 1013.5
20260506015819 18 157 0.0 0.0 0.00 1.75 0.00 68 1013.5
20260506015327 18 155 0.0 0.0 0.00 1.75 0.00 68 1013.5
20260506014836 18 142 0.0 0.0 0.00 1.75 0.00 68 1013.5
20260506014324 18 128 0.0 0.0 0.00 1.75 0.00 67 1013.5
20260506013832 18 122 0.0 0.0 0.00 1.75 0.00 67 1013.4
20260506013319 18 129 0.0 0.0 0.00 1.75 0.00 66 1013.4
20260506012828 18 137 0.0 0.0 0.00 1.75 0.00 66 1013.3
20260506012319 18 139 0.0 0.0 0.00 1.75 0.00 66 1013.4
20260506011322 18 128 0.0 0.0 0.00 1.75 0.00 66 1013.4
20260506010831 18 128 0.0 0.0 0.00 1.75 0.00 65 1013.3
20260506010318 19 178 0.0 0.0 0.00 1.91 0.00 65 1013.3
20260506005828 19 106 0.0 0.0 0.00 1.91 0.00 65 1013.3
20260506005317 19 107 0.0 0.0 0.00 1.91 0.00 64 1013.2
20260506004826 19 101 0.0 0.0 0.00 1.91 0.00 65 1013.2
20260506004334 19 123 0.0 0.0 0.00 1.91 0.00 65 1013.2
20260506003822 19 123 0.0 0.0 0.00 1.91 0.00 65 1013.1
20260506003330 19 123 0.0 0.0 0.00 1.91 0.00 64 1013.0
20260506002824 19 121 0.0 0.0 0.00 1.91 0.00 64 1013.0
20260506002333 19 122 0.0 0.0 0.00 1.91 0.00 63 1013.0
20260506001822 19 125 0.0 0.0 0.00 1.91 0.00 64 1013.1
20260506001330 19 126 0.0 0.0 0.00 1.91 0.00 64 1013.0
20260506000819 19 126 0.0 0.0 0.00 1.91 0.00 63 1013.0
20260506000326 19 125 0.0 0.0 0.00 2.11 0.00 64 1013.0
20260505235835 19 125 0.0 0.0 0.00 2.11 0.00 63 1012.9
20260505235323 19 125 0.0 0.0 0.00 2.11 0.00 63 1012.9
20260505234832 19 126 0.0 0.0 0.00 2.11 0.00 63 1012.9
20260505234324 19 123 0.0 0.0 0.00 2.11 0.00 63 1013.0
20260505233835 19 121 0.0 0.0 0.00 2.11 0.00 62 1013.0
20260505233323 19 121 0.0 0.0 0.00 2.11 0.00 63 1012.9
20260505232832 20 121 0.0 0.0 0.00 2.11 0.00 62 1012.9
20260505232319 20 121 0.0 0.0 0.00 2.11 0.00 62 1012.9
20260505231827 20 119 0.0 0.0 0.00 2.11 0.00 61 1013.0
20260505231335 20 119 0.0 0.0 0.00 2.11 0.00 62 1012.9
20260505230823 20 117 0.0 0.0 0.00 2.11 0.00 61 1013.1
20260505230318 19 117 0.0 0.0 0.00 2.24 0.00 61 1013.1
20260505225827 20 117 0.0 0.0 0.00 2.24 0.00 61 1013.1
20260505225336 20 130 0.0 0.0 0.00 2.24 0.00 62 1013.0
20260505224826 20 130 0.0 0.0 0.00 2.24 0.00 61 1013.0
20260505224335 20 129 0.0 0.0 0.00 2.24 0.00 60 1013.0
20260505223824 20 138 0.0 0.0 0.00 2.24 0.00 60 1013.0
20260505223332 20 175 0.0 0.0 0.00 2.24 0.00 60 1013.1
20260505222821 20 178 0.0 0.0 0.00 2.24 0.00 60 1013.2
20260505222329 20 178 0.0 0.0 0.00 2.24 0.00 59 1013.3
20260505221823 20 178 0.0 0.0 0.00 2.24 0.00 59 1013.4
20260505221331 20 178 0.0 0.0 0.00 2.24 0.00 58 1013.5
20260505220821 20 178 0.0 0.0 0.00 2.24 0.00 60 1013.4
20260505220329 20 178 0.0 0.0 0.00 2.29 0.00 58 1013.5
20260505215818 20 178 0.0 0.0 0.00 2.29 0.00 59 1013.4
20260505215326 20 174 0.0 0.0 0.00 2.29 0.00 58 1013.4
20260505214814 20 175 0.0 0.0 0.00 2.29 0.00 60 1013.4
20260505214325 20 175 0.0 0.0 0.00 2.29 0.00 63 1013.5
20260505213834 20 172 0.0 0.0 0.00 2.29 0.00 61 1013.7
20260505213327 19 169 0.0 0.0 0.00 2.29 0.00 63 1013.7
20260505212820 19 167 0.0 0.0 0.00 2.29 0.00 64 1013.8
20260505212325 19 148 0.0 0.0 0.00 2.29 0.00 66 1013.7
20260505211833 19 114 0.0 0.0 0.00 2.29 0.00 66 1013.7
20260505211320 18 259 0.0 0.0 0.00 2.29 0.00 66 1013.8
20260505210831 18 257 0.0 0.0 0.00 2.29 0.00 67 1013.7
20260505210319 18 268 0.0 0.0 0.00 2.29 0.00 66 1013.8
20260505205829 18 206 0.0 0.0 0.00 2.29 0.00 67 1013.7
20260505205317 18 207 0.0 0.0 0.00 2.29 0.00 68 1013.7
20260505204831 18 207 0.0 0.0 0.00 2.29 0.00 69 1013.8
20260505204319 18 206 0.0 0.0 0.00 2.29 0.00 70 1013.8
20260505203828 18 207 0.0 0.0 0.00 2.29 0.00 71 1013.9
20260505203316 18 207 0.0 0.0 0.00 2.29 0.00 71 1013.9
20260505202829 17 207 0.0 0.0 0.00 2.29 0.00 71 1013.9
20260505202316 17 205 0.0 0.0 0.00 2.29 0.00 72 1013.7
20260505201826 17 205 0.0 0.0 0.00 2.29 0.00 71 1013.8
20260505201315 17 205 0.0 0.0 0.00 2.29 0.00 71 1014.0
20260505200827 17 205 0.0 0.0 0.00 2.29 0.00 71 1014.0
20260505200320 17 165 0.0 0.0 0.00 2.31 0.00 71 1014.0
20260505195830 17 165 0.0 0.0 0.00 2.31 0.00 72 1014.0
20260505195318 17 166 0.0 0.0 0.00 2.31 0.00 74 1014.1
20260505194826 17 164 0.0 0.0 0.00 2.31 0.00 75 1014.1
20260505194337 17 165 0.0 0.0 0.00 2.31 0.00 76 1014.2
20260505193824 16 165 0.0 0.0 0.00 2.31 0.00 76 1014.2
20260505193335 16 165 0.0 0.0 0.00 2.31 0.00 77 1014.1
20260505192824 16 155 0.0 0.0 0.00 2.31 0.00 79 1014.2
20260505192332 16 134 0.0 0.0 0.00 2.31 0.00 81 1014.3
20260505191824 16 134 0.0 0.0 0.00 2.31 0.00 82 1014.3
20260505191332 16 130 0.0 0.0 0.00 2.31 0.00 83 1014.3
20260505190825 15 128 0.0 0.0 0.00 2.31 0.00 85 1014.3
20260505190334 15 127 0.0 0.0 0.00 2.31 0.00 85 1014.3
20260505185824 15 128 0.0 0.0 0.00 2.31 0.00 87 1014.3
20260505185333 15 128 0.0 0.0 0.00 2.31 0.00 89 1014.2
20260505184822 15 128 0.0 0.0 0.00 2.31 0.00 89 1014.2
20260505184330 15 126 0.0 0.0 0.00 2.31 0.00 90 1014.2
20260505183822 15 125 0.0 0.0 0.00 2.31 0.00 91 1014.2
20260505183330 15 125 0.0 0.0 0.00 2.31 0.00 91 1014.1
20260505182819 14 126 0.0 0.0 0.00 2.31 0.00 92 1014.1
20260505182326 14 126 0.0 0.0 0.00 2.31 0.00 92 1014.1
20260505181835 14 125 0.0 0.0 0.00 2.31 0.00 92 1014.1
20260505181323 14 122 0.0 0.0 0.00 2.31 0.00 92 1014.1
20260505180832 13 122 0.0 0.0 0.00 2.31 0.00 92 1014.1
20260505180319 13 122 0.0 0.0 0.00 2.36 0.00 92 1014.1
20260505175828 13 122 0.0 0.0 0.00 2.36 0.00 92 1014.0
20260505175319 13 122 0.0 0.0 0.00 2.36 0.00 92 1014.0
20260505174828 13 122 0.0 0.0 0.00 2.36 0.00 92 1014.0
20260505174337 13 122 0.0 0.0 0.00 2.36 0.00 92 1014.0
20260505173824 13 122 0.0 0.0 0.00 2.36 0.00 92 1013.9
20260505173332 13 122 0.0 0.0 0.00 2.36 0.00 92 1013.9
20260505172822 13 122 0.0 0.0 0.00 2.36 0.00 92 1013.9
20260505172332 13 122 0.0 0.0 0.00 2.36 0.00 92 1013.8
20260505171820 13 122 0.0 0.0 0.00 2.36 0.00 92 1013.8
20260505171329 13 123 0.0 0.0 0.00 2.36 0.00 92 1014.0
20260505170821 13 123 0.0 0.0 0.00 2.36 0.00 92 1014.0
20260505170330 13 123 0.0 0.0 0.00 2.36 0.00 92 1013.9
20260505165823 13 123 0.0 0.0 0.00 2.36 0.00 92 1013.8
20260505165330 13 128 0.0 0.0 0.00 2.36 0.00 92 1013.9
20260505164819 13 128 0.0 0.0 0.00 2.36 0.00 92 1013.8
20260505164327 13 128 0.0 0.0 0.00 2.36 0.00 92 1013.9
20260505163835 13 128 0.0 0.0 0.00 2.36 0.00 92 1013.9
20260505163324 12 128 0.0 0.0 0.00 2.36 0.00 92 1013.9
20260505162833 12 128 0.0 0.0 0.00 2.36 0.00 92 1013.9
20260505162325 12 128 0.0 0.0 0.00 2.36 0.00 92 1013.8
20260505161813 12 139 0.0 0.0 0.00 2.36 0.00 92 1013.8
20260505161325 12 144 0.0 0.0 0.00 2.36 0.00 92 1013.7
20260505160834 12 144 0.0 0.0 0.00 2.36 0.00 92 1013.8
20260505153335 12 130 0.0 0.0 0.00 2.36 0.00 92 1013.6
20260505152823 12 131 0.0 0.0 0.00 2.36 0.00 92 1013.6
20260505152334 12 131 0.0 0.0 0.00 2.36 0.00 92 1013.6
20260505151823 12 130 0.0 0.0 0.00 2.36 0.00 92 1013.5
20260505151330 12 131 0.0 0.0 0.00 2.36 0.00 92 1013.6
20260505150819 12 130 0.0 0.0 0.00 2.36 0.00 92 1013.5
20260505150328 12 131 0.0 0.0 0.00 2.36 2.36 92 1013.4
20260505140321 12 133 0.0 0.0 0.00 2.36 2.36 92 1012.8